Location: G�ndlingen
(48.0142°N, 7.6396°E)
Time: 18:14:40
(UTC+00:00)

ALOS 2 - Pass Details

Date: 05 July 2020
Orbit: 630 x 632 km, 97.9° (Epoch: 13 August)

Event Time Altitude Azimuth Distance (km) Brightness Sun altitude
Exits shadow 21:57:54 18° 111° (ESE) 1,554 4.2 -16.1°
Maximum altitude 22:00:12 28° 66° (ENE) 1,187 4.0 -16.2°
Drops below altitude 10° 22:03:58 10° 7° (N) 2,026 6.1 -16.5°
Sets 22:06:23 0° 356° (N) 2,939 7.5 -16.6°
